Location: maison
(44.0032°N, 4.9445°E)
Time: 20:22:12
(UTC+01:00)

Envisat - Visible Passes

Search period start: 31 October 2020 00:00
Search period end: 10 November 2020 00:00
Orbit: 764 x 766 km, 98.1° (Epoch: 31 October)

Date Brightness Start Highest point End Pass type
(mag) Time Alt. Az. Time Alt. Az. Time Alt. Az.
31 Oct 5.9 05:34:20 10° NE 05:37:57 19° E 05:41:33 10° SE visible
31 Oct 4.8 18:28:40 10° SSW 18:33:18 36° W 18:37:59 10° NNW visible
01 Nov 3.4 06:35:27 10° NNE 06:40:33 71° ESE 06:45:37 10° S visible
02 Nov 5.0 05:59:02 10° NNE 06:03:37 33° E 06:08:08 10° SSE visible
02 Nov 5.7 18:55:08 10° SW 18:58:56 21° W 19:02:46 10° NW visible
03 Nov 6.2 05:23:31 10° NE 05:26:27 15° E 05:29:22 10° SE visible
03 Nov 4.3 18:17:01 10° S 18:21:52 45° W 18:26:45 10° NNW visible
04 Nov 3.8 06:24:08 10° NNE 06:29:09 56° E 06:34:08 10° S visible
04 Nov 6.4 19:22:45 10° WSW 19:24:41 12° W 19:26:36 10° WNW visible
05 Nov 5.4 05:47:54 10° NE 05:52:09 26° E 05:56:22 10° SSE visible
05 Nov 5.4 18:43:14 10° SSW 18:47:27 26° W 18:51:43 10° NW visible
06 Nov 6.4 05:13:05 10° ENE 05:14:56 12° E 05:16:47 10° ESE visible
06 Nov 3.0 06:49:29 10° NNE 06:54:36 85° WNW 06:59:41 10° SSW visible
06 Nov 3.8 18:05:28 10° S 18:10:27 57° W 18:15:29 10° NNW visible
07 Nov 4.3 06:12:51 10° NNE 06:17:45 44° E 06:22:34 10° S visible
07 Nov 6.1 19:10:12 10° SW 19:13:09 15° W 19:16:08 10° NW visible
08 Nov 5.7 05:36:52 10° NE 05:40:40 21° E 05:44:27 10° SE visible
08 Nov 4.9 18:31:27 10° SSW 18:36:00 33° W 18:40:35 10° NNW visible
09 Nov 3.2 06:38:07 10° NNE 06:43:14 77° ESE 06:48:18 10° S visible
09 Nov 3.4 17:54:00 10° S 17:59:04 72° WSW 18:04:09 10° NNW visible
